Weather in Shamlugh

Armenia     41°09′49″N   44°43′05″E
temp.,
°C
wind,
m/s
gust,
m/s
humid.,
%
clouds,
%
prec.,
mm/h
press.,
hPa
HPBL,
m
13 april, tue
tue1301:00+8nnw2293100 2.1 1020256
04:00+8nnw1196100 3.3 1019165
07:00+8n1195100 0.6 1020173
10:00+8nne2295100 0.8 1020308
13:00+9nne2295100 0.5 1019346
16:00+9nne229599 1.9 1017284
19:00+9nw129382 0.9 1018136
22:00+6wsw119099 1.0 101915
14 april, wed
wed1401:00+8sw1190100 0.3 101839
04:00+7sw1194100 2.6 101741
07:00+7nne0096100 1.6 101820
10:00+10n1279100 1.6 1017594
13:00+13ne236192 0.6 10151134
16:00+16ne34503 0.9 10131203
19:00+12e22755 0.9 101554
22:00+9ssw22825 0.9 101729
15 april, thu
thu1501:00+8sw22789 0.0 101720
04:00+7sw22723 0.0 101821
07:00+6sw226623 0.0 101824
10:00+13ne21500 0.0 1017600
13:00+17ne324450 0.0 10161069
16:00+18ne323982 0.1 10141369
19:00+14ese0158100 0.0 101514
22:00
16 april, fri
fri1601:00+10ssw226694 0.0 101621
04:00+9ssw116929 0.0 101710
07:00+8sw217429 0.0 101817
10:00+14ne21537 0.0 1017784
13:00+17ne324766 0.1 10151304
16:00+17nne225376 0.9 10141065
19:00+13ese118079 1.5 101783
22:00+11sw2285100 1.6 101727
17 april, sat
sat1701:00+9ssw118815 0.0 101910
04:00+8sw219031 0.0 101911
07:00+8sw228793 0.0 101930
10:00+14nne216899 0.0 1018590
13:00+18nne325378 0.0 10161105
16:00+19ne324992 0.2 10151440
19:00+15ne116595 0.0 101521
22:00+14ssw1169100 0.1 101616